FW1241 Weather Reports


Display with metric or nautical units.
time (UTC)temp
F
wind
direction
speed
MPH
gust
MPH
rain 1hr
in
rain 24hr
in
rain mn
in
humidity
%
barometer
mb
20260901143105 58 166 0.0 0.0 0.00 0.00 0.00 90 1014.6
20260901142605 57 152 0.0 0.0 0.00 0.00 0.00 89 1014.5
20260901142104 57 152 0.0 0.0 0.00 0.00 0.00 89 1014.4
20260901140105 56 142 0.0 0.0 0.00 0.00 0.00 89 1014.1
20260901135105 56 142 0.0 0.0 0.00 0.00 0.00 88 1013.8
20260901134605 56 143 0.0 0.0 0.00 0.00 0.00 88 1013.7
20260901134104 56 142 0.0 0.0 0.00 0.00 0.00 88 1013.5
20260901133605 56 143 0.0 0.0 0.00 0.00 0.00 88 1013.5
20260901132604 56 143 0.0 0.0 0.00 0.00 0.00 88 1013.4
20260901131105 57 142 0.0 0.0 0.00 0.00 0.00 87 1013.3
20260901130604 57 124 0.0 0.0 0.00 0.00 0.00 87 1013.2
20260901125604 57 121 0.0 0.0 0.00 0.00 0.00 87 1013.1
20260901124605 57 143 0.0 1.0 0.00 0.00 0.00 87 1012.9
20260901123604 57 166 0.0 0.0 0.00 0.00 0.00 87 1012.8
20260901123104 57 166 0.0 0.0 0.00 0.00 0.00 87 1012.8
20260901121605 58 222 0.0 0.0 0.00 0.00 0.00 85 1012.6
20260901114104 60 222 0.0 0.0 0.00 0.00 0.00 82 1012.0
20260901113604 61 222 0.0 0.0 0.00 0.00 0.00 82 1011.9
20260901112605 61 222 0.0 0.0 0.00 0.00 0.00 82 1011.8
20260901111605 61 222 0.0 0.0 0.00 0.00 0.00 81 1011.7
20260901105604 61 222 0.0 0.0 0.00 0.00 0.00 79 1011.7
20260901104605 62 222 0.0 0.0 0.00 0.00 0.00 78 1011.7
20260901102605 62 222 0.0 0.0 0.00 0.00 0.00 78 1011.7
20260901095105 62 166 0.0 0.0 0.00 0.00 0.00 76 1011.7
20260901094605 62 166 0.0 0.0 0.00 0.00 0.00 76 1011.6
20260901094105 62 166 0.0 0.0 0.00 0.00 0.00 75 1011.6
20260901093605 62 166 0.0 0.0 0.00 0.00 0.00 74 1011.6
20260901093105 63 166 0.0 0.0 0.00 0.00 0.00 73 1011.5
20260901092604 63 166 0.0 0.0 0.00 0.00 0.00 71 1011.3
20260901092104 63 166 0.0 0.0 0.00 0.00 0.00 71 1011.3
20260901091605 63 143 0.0 1.0 0.00 0.00 0.00 70 1011.3
20260901090605 63 142 0.0 0.0 0.00 0.00 0.00 68 1011.1
20260901090104 63 142 0.0 0.0 0.00 0.00 0.00 67 1011.0
20260901085605 64 143 0.0 0.0 0.00 0.00 0.00 67 1010.9
20260901085104 64 143 0.0 0.0 0.00 0.00 0.00 66 1010.8
20260901084604 64 142 0.0 1.0 0.00 0.00 0.00 65 1010.8
20260901084104 64 108 0.0 0.0 0.00 0.00 0.00 62 1010.8
20260901083604 65 99 0.0 0.0 0.00 0.00 0.00 62 1010.8
20260901082604 65 99 0.0 0.0 0.00 0.00 0.00 60 1010.7
20260901082105 65 99 0.0 0.0 0.00 0.00 0.00 59 1010.7
20260901074605 65 100 0.0 0.0 0.00 0.00 0.00 57 1010.6
20260901072604 66 100 0.0 1.0 0.00 0.00 0.00 53 1010.3
20260901072104 66 139 0.0 0.0 0.00 0.00 0.00 52 1010.4
20260901071106 67 128 0.0 0.0 0.00 0.00 0.00 50 1010.5
20260901070105 67 128 0.0 0.0 0.00 0.00 0.00 49 1010.6
20260901065104 66 136 0.0 0.0 0.00 0.00 0.00 48 1010.4
20260901064605 67 135 0.0 0.0 0.00 0.00 0.00 48 1010.4
20260901064104 67 105 0.0 0.0 0.00 0.00 0.00 46 1010.4
20260901063604 67 105 0.0 0.0 0.00 0.00 0.00 46 1010.3
20260901055605 69 193 0.0 1.0 0.00 0.00 0.00 39 1010.1
20260901054104 70 200 0.0 2.0 0.00 0.00 0.00 39 1009.9
20260901053104 70 169 0.0 0.0 0.00 0.00 0.00 36 1009.6
20260901052105 70 156 0.0 0.0 0.00 0.00 0.00 37 1009.4
20260901051104 71 117 0.0 1.0 0.00 0.00 0.00 37 1009.4
20260901045105 72 172 0.0 0.0 0.00 0.00 0.00 37 1009.0
20260901044605 72 172 0.0 1.0 0.00 0.00 0.00 35 1008.9
20260901044105 72 128 0.0 1.0 0.00 0.00 0.00 35 1008.9
20260901043105 73 136 0.0 0.0 0.00 0.00 0.00 35 1008.8
20260901041604 74 86 1.0 3.0 0.00 0.00 0.00 35 1008.7
20260901041104 74 146 1.0 2.0 0.00 0.00 0.00 37 1008.6
20260901040604 74 162 0.0 0.0 0.00 0.00 0.00 41 1008.6
20260901040105 74 85 0.0 1.0 0.00 0.00 0.00 42 1008.6
20260901035105 75 203 0.0 0.0 0.00 0.00 0.00 41 1008.4
20260901034104 76 207 0.0 0.0 0.00 0.00 0.00 38 1008.2
20260901033104 77 243 0.0 1.0 0.00 0.00 0.00 38 1008.0
20260901030104 79 294 0.0 0.0 0.00 0.00 0.00 45 1007.4
20260901025605 79 294 0.0 0.0 0.00 0.00 0.00 43 1007.4
20260901023605 82 294 0.0 0.0 0.00 0.00 0.00 40 1007.3
20260901022605 83 294 0.0 0.0 0.00 0.00 0.00 37 1007.3
20260901022104 83 294 0.0 0.0 0.00 0.00 0.00 37 1007.3
20260901021605 84 294 0.0 0.0 0.00 0.00 0.00 36 1007.2
20260901013604 89 294 0.0 1.0 0.00 0.00 0.00 28 1007.2
20260901012604 91 294 0.0 0.0 0.00 0.00 0.00 27 1007.3
20260901012105 92 294 0.0 0.0 0.00 0.00 0.00 27 1007.2
20260901011604 93 315 0.0 1.0 0.00 0.00 0.00 26 1007.2
20260901011105 93 345 0.0 1.0 0.00 0.00 0.00 25 1007.2
20260901010605 94 265 0.0 1.0 0.00 0.00 0.00 24 1007.2
20260901005105 94 11 0.0 1.0 0.00 0.00 0.00 24 1007.2
20260901004605 94 176 0.0 1.0 0.00 0.00 0.00 23 1007.2
20260901003605 94 233 0.0 1.0 0.00 0.00 0.00 22 1007.2
20260901003104 94 175 0.0 0.0 0.00 0.00 0.00 21 1007.3
20260901002604 94 175 0.0 0.0 0.00 0.00 0.00 25 1007.3
20260901002105 94 160 0.0 1.0 0.00 0.00 0.00 23 1007.4
20260901001605 94 213 1.0 2.0 0.00 0.00 0.00 23 1007.4
20260901001104 94 240 0.0 1.0 0.00 0.00 0.00 24 1007.5
20260901000604 94 300 0.0 2.0 0.00 0.00 0.00 25 1007.5
20260831235105 94 125 0.0 2.0 0.00 0.00 0.00 25 1007.6
20260831234105 94 132 0.0 2.0 0.00 0.00 0.00 27 1007.7
20260831233605 94 291 0.0 1.0 0.00 0.00 0.00 27 1007.8
20260831232605 94 273 0.0 1.0 0.00 0.00 0.00 27 1007.8
20260831232104 94 173 0.0 1.0 0.00 0.00 0.00 27 1007.9
20260831231605 93 302 0.0 1.0 0.00 0.00 0.00 28 1007.9
20260831230105 93 267 1.0 3.0 0.00 0.00 0.00 28 1008.0
20260831225605 93 299 1.0 2.0 0.00 0.00 0.00 27 1008.0
20260831224105 92 294 1.0 3.0 0.00 0.00 0.00 29 1008.2
20260831222104 93 292 0.0 2.0 0.00 0.00 0.00 28 1008.6
20260831221604 93 254 0.0 2.0 0.00 0.00 0.00 28 1008.6
20260831221105 92 269 0.0 1.0 0.00 0.00 0.00 29 1008.7
20260831220604 92 308 0.0 2.0 0.00 0.00 0.00 29 1008.7
20260831215605 92 313 1.0 6.0 0.00 0.00 0.00 29 1008.9
20260831215104 92 286 0.0 1.0 0.00 0.00 0.00 30 1009.0
20260831214104 92 335 1.0 3.0 0.00 0.00 0.00 29 1009.1
20260831213604 92 129 1.0 3.0 0.00 0.00 0.00 29 1009.2
20260831212605 92 306 1.0 2.0 0.00 0.00 0.00 30 1009.4
20260831212104 92 226 0.0 1.0 0.00 0.00 0.00 29 1009.5
20260831205104 90 312 2.0 5.0 0.00 0.00 0.00 31 1009.7
20260831203604 89 315 1.0 5.0 0.00 0.00 0.00 31 1009.9
20260831202605 90 307 1.0 2.0 0.00 0.00 0.00 32 1009.9
20260831202105 90 92 1.0 2.0 0.00 0.00 0.00 32 1010.0
20260831201604 89 227 0.0 1.0 0.00 0.00 0.00 34 1010.0
20260831200104 88 308 1.0 3.0 0.00 0.00 0.00 34 1010.1
20260831195105 88 292 1.0 5.0 0.00 0.00 0.00 34 1010.2
20260831194604 88 301 0.0 2.0 0.00 0.00 0.00 35 1010.3
20260831194104 87 336 0.0 2.0 0.00 0.00 0.00 36 1010.4
20260831193604 87 295 1.0 3.0 0.00 0.00 0.00 35 1010.5
20260831193104 87 264 1.0 3.0 0.00 0.00 0.00 35 1010.6
20260831192104 87 326 0.0 2.0 0.00 0.00 0.00 36 1010.7
20260831191604 87 321 1.0 3.0 0.00 0.00 0.00 38 1010.7
20260831191104 86 252 0.0 2.0 0.00 0.00 0.00 38 1010.8
20260831190604 86 322 0.0 2.0 0.00 0.00 0.00 40 1010.9
20260831190105 86 306 0.0 3.0 0.00 0.00 0.00 39 1010.8
20260831183605 85 214 0.0 1.0 0.00 0.00 0.00 41 1011.1
20260831183105 84 24 0.0 3.0 0.00 0.00 0.00 40 1011.1
20260831182104 84 183 1.0 3.0 0.00 0.00 0.00 41 1011.1
20260831181604 83 266 1.0 3.0 0.00 0.00 0.00 41 1011.1
20260831175605 82 349 1.0 3.0 0.00 0.00 0.00 43 1011.0
20260831175104 82 165 0.0 2.0 0.00 0.00 0.00 44 1011.1
20260831174604 81 92 1.0 5.0 0.00 0.00 0.00 43 1011.0
20260831172605 80 189 1.0 5.0 0.00 0.00 0.00 42 1011.1
20260831172105 80 92 0.0 3.0 0.00 0.00 0.00 41 1011.1
20260831171104 80 198 1.0 5.0 0.00 0.00 0.00 42 1011.1
20260831170604 79 115 1.0 3.0 0.00 0.00 0.00 42 1011.1
20260831165105 78 215 0.0 3.0 0.00 0.00 0.00 44 1010.9
20260831161604 75 169 0.0 2.0 0.00 0.00 0.00 46 1010.8
20260831161105 74 190 1.0 6.0 0.00 0.00 0.00 46 1010.9
20260831155604 73 191 1.0 3.0 0.00 0.00 0.00 47 1010.8
20260831155105 73 146 3.0 6.0 0.00 0.00 0.00 45 1010.8
20260831154605 73 195 2.0 5.0 0.00 0.00 0.00 45 1010.8
20260831154104 72 175 0.0 3.0 0.00 0.00 0.00 50 1010.9
20260831153104 71 179 1.0 3.0 0.00 0.00 0.00 50 1011.0
20260831152104 71 188 3.0 5.0 0.00 0.00 0.00 51 1010.8
20260831151105 70 175 0.0 3.0 0.00 0.00 0.00 56 1010.7
20260831150105 67 111 0.0 1.0 0.00 0.00 0.00 58 1010.8
20260831145605 66 83 0.0 1.0 0.00 0.00 0.00 59 1010.8
20260831145105 65 110 0.0 1.0 0.00 0.00 0.00 62 1010.8
20260831144604 64 136 0.0 0.0 0.00 0.00 0.00 64 1010.7
20260831144105 64 135 0.0 0.0 0.00 0.00 0.00 65 1010.6